Location: Titusville
(28.6120°N, 80.8080°W)
Time: 13:35:47
(UTC-04:00)

Tiangong 2 - Visible Passes

Search period start: 19 July 2018 00:00
Search period end: 29 July 2018 00:00
Orbit: 386 x 394 km, 42.8° (Epoch: 19 July)

Date Brightness Start Highest point End Pass type
(mag) Time Alt. Az. Time Alt. Az. Time Alt. Az.
19 Jul 4.2 22:38:37 10° N 22:39:00 10° NNE 22:39:00 10° NNE visible
21 Jul 3.6 22:18:52 10° NNW 22:20:44 16° NNE 22:20:44 16° NNE visible
22 Jul 3.9 21:22:00 10° N 21:22:57 11° NNE 21:23:52 10° NE visible
22 Jul 4.4 22:57:12 10° NW 22:57:47 14° NW 22:57:47 14° NW visible
23 Jul 2.6 21:59:45 10° NNW 22:02:31 27° NNE 22:02:33 27° NNE visible
24 Jul 3.4 21:02:27 10° NNW 21:04:38 17° NNE 21:06:49 10° ENE visible
24 Jul 3.8 22:38:34 10° WNW 22:39:40 20° WNW 22:39:40 20° WNW visible
25 Jul 1.3 21:40:51 10° NW 21:44:00 58° NNE 21:44:31 49° ENE visible
26 Jul 2.5 20:43:20 10° NW 20:46:12 30° NNE 20:49:03 10° E visible
26 Jul 3.5 22:20:20 10° W 22:21:45 19° WSW 22:21:45 19° WSW visible
27 Jul 1.5 21:22:13 10° WNW 21:25:21 54° SW 21:26:44 28° SSE visible
28 Jul 4.0 22:03:43 10° SW 22:04:07 10° SW 22:04:07 10° SW visible
